QTR108 OTHH-OEJN

Flight info

Callsign QTR108
Flight time N/A
Altitude 40000
Route TULUB B457 NARMI N112 GETOT DCT UMASU M309 VEMEM
Aircraft A359/H-SDE2E3GHIJ3J4J5LM1ORWXY/LB1D1

Departure

Time 2026-05-05 20:58
Airport Hamad International Airport (OTHH)

Arrival

Time N/A
Airport King Abdulaziz International Airport (OEJN)
Time Latitude Longitude Altitude Speed Heading
2026-05-05 20:14 25.26315 51.61590 36 ft 0 kts 159°
2026-05-05 20:49 25.26332 51.61583 34 ft 4 kts 159°
2026-05-05 20:49 25.26358 51.61572 34 ft 4 kts 159°
2026-05-05 20:49 25.26377 51.61564 34 ft 4 kts 158°
2026-05-05 20:50 25.26396 51.61553 34 ft 4 kts 134°
2026-05-05 20:50 25.26402 51.61533 33 ft 3 kts 68°
2026-05-05 20:50 25.26393 51.61506 32 ft 4 kts 68°
2026-05-05 20:50 25.26390 51.61500 33 ft 0 kts 68°
2026-05-05 20:53 25.26408 51.61556 33 ft 16 kts 69°
2026-05-05 20:53 25.26468 51.61714 36 ft 25 kts 69°
2026-05-05 20:53 25.26531 51.61889 36 ft 22 kts 68°
2026-05-05 20:53 25.26548 51.62017 35 ft 12 kts 124°
2026-05-05 20:54 25.26480 51.62060 35 ft 14 kts 156°
2026-05-05 20:54 25.26376 51.62109 35 ft 19 kts 157°
2026-05-05 20:54 25.26238 51.62168 35 ft 23 kts 160°
2026-05-05 20:54 25.26073 51.62240 36 ft 27 kts 157°
2026-05-05 20:55 25.25903 51.62317 35 ft 21 kts 158°
2026-05-05 20:55 25.25754 51.62383 35 ft 25 kts 156°
2026-05-05 20:55 25.25577 51.62462 35 ft 29 kts 158°
2026-05-05 20:55 25.25516 51.62525 34 ft 0 kts 84°
2026-05-05 20:56 25.25518 51.62540 34 ft 6 kts 81°
2026-05-05 20:56 25.25547 51.62598 33 ft 12 kts 45°
2026-05-05 20:56 25.25640 51.62632 33 ft 17 kts 353°
2026-05-05 20:57 25.25779 51.62573 32 ft 36 kts 336°
2026-05-05 20:57 25.26235 51.62373 34 ft 104 kts 338°
2026-05-05 20:57 25.27095 51.61990 31 ft 160 kts 338°
2026-05-05 20:57 25.28185 51.61477 502 ft 172 kts 338°
2026-05-05 20:58 25.29268 51.60976 1223 ft 167 kts 340°
2026-05-05 20:58 25.30378 51.60507 1596 ft 179 kts 341°
2026-05-05 20:58 25.31609 51.59988 1770 ft 201 kts 341°
2026-05-05 20:58 25.32972 51.59405 1988 ft 224 kts 340°
2026-05-05 20:59 25.34556 51.59157 2182 ft 242 kts 12°
2026-05-05 20:59 25.36204 51.59788 2569 ft 254 kts 23°
2026-05-05 20:59 25.37856 51.60482 3121 ft 261 kts 19°
2026-05-05 20:59 25.39595 51.61095 3777 ft 264 kts 16°
2026-05-05 21:00 25.41373 51.61645 4517 ft 265 kts 14°
2026-05-05 21:00 25.43164 51.62156 5213 ft 267 kts 13°
2026-05-05 21:00 25.44998 51.62657 5872 ft 270 kts 12°
2026-05-05 21:00 25.46807 51.63139 6505 ft 272 kts 12°
2026-05-05 21:01 25.48682 51.63624 7141 ft 275 kts 11°
2026-05-05 21:01 25.50535 51.64072 7781 ft 278 kts 11°
2026-05-05 21:01 25.52430 51.64525 8449 ft 280 kts 10°
2026-05-05 21:01 25.54346 51.64986 9146 ft 283 kts 10°
2026-05-05 21:02 25.56277 51.65451 9843 ft 286 kts 10°
2026-05-05 21:02 25.58285 51.65751 10227 ft 299 kts 358°
2026-05-05 21:02 25.60398 51.65427 10507 ft 315 kts 347°
2026-05-05 21:02 25.62593 51.64884 10793 ft 332 kts 346°
2026-05-05 21:03 25.64884 51.64310 11175 ft 342 kts 347°
2026-05-05 21:03 25.67229 51.63731 11714 ft 348 kts 347°
2026-05-05 21:03 25.69607 51.63150 12301 ft 352 kts 347°
2026-05-05 21:03 25.72007 51.62543 12902 ft 356 kts 345°
2026-05-05 21:04 25.74352 51.61636 13540 ft 359 kts 338°
2026-05-05 21:04 25.76668 51.60564 14105 ft 363 kts 337°
2026-05-05 21:04 25.79004 51.59463 14646 ft 367 kts 337°
2026-05-05 21:04 25.81364 51.58351 15183 ft 371 kts 337°
2026-05-05 21:05 25.83658 51.57027 15707 ft 374 kts 325°
2026-05-05 21:05 25.85542 51.55035 16238 ft 377 kts 306°
2026-05-05 21:05 25.86920 51.52541 16769 ft 381 kts 298°
2026-05-05 21:05 25.88173 51.49930 17310 ft 385 kts 297°
2026-05-05 21:06 25.89426 51.47298 17957 ft 386 kts 297°
2026-05-05 21:06 25.90690 51.44658 18504 ft 389 kts 297°
2026-05-05 21:06 25.91968 51.42001 19041 ft 391 kts 297°
2026-05-05 21:06 25.93255 51.39330 19604 ft 393 kts 297°
2026-05-05 21:07 25.94552 51.36641 20166 ft 396 kts 297°
2026-05-05 21:07 25.95856 51.33938 20725 ft 398 kts 297°
2026-05-05 21:07 25.97169 51.31217 21251 ft 401 kts 296°
2026-05-05 21:07 25.98482 51.28471 21789 ft 404 kts 296°
2026-05-05 21:08 25.99780 51.25688 22340 ft 407 kts 295°
2026-05-05 21:08 26.01088 51.22879 22870 ft 410 kts 295°
2026-05-05 21:08 26.02405 51.20054 23414 ft 413 kts 295°
2026-05-05 21:08 26.03733 51.17209 23904 ft 415 kts 295°
2026-05-05 21:09 26.05063 51.14361 24455 ft 415 kts 295°
2026-05-05 21:09 26.06395 51.11508 25017 ft 416 kts 295°
2026-05-05 21:09 26.07729 51.08649 25568 ft 417 kts 294°
2026-05-05 21:09 26.09063 51.05788 26078 ft 418 kts 294°
2026-05-05 21:10 26.10401 51.02917 26604 ft 419 kts 294°
2026-05-05 21:10 26.11743 51.00036 27115 ft 420 kts 294°
2026-05-05 21:10 26.13027 50.97112 27629 ft 420 kts 291°
2026-05-05 21:10 26.14238 50.94153 28130 ft 421 kts 291°
2026-05-05 21:11 26.15428 50.91167 28609 ft 423 kts 290°
2026-05-05 21:11 26.16622 50.88171 29098 ft 424 kts 290°
2026-05-05 21:11 26.17824 50.85176 29651 ft 424 kts 290°
2026-05-05 21:11 26.19034 50.82181 30085 ft 425 kts 290°
2026-05-05 21:12 26.20256 50.79175 30352 ft 429 kts 290°
2026-05-05 21:12 26.21494 50.76138 30638 ft 432 kts 290°
2026-05-05 21:12 26.22729 50.73119 30928 ft 435 kts 290°
2026-05-05 21:12 26.23987 50.70046 31224 ft 438 kts 290°
2026-05-05 21:13 26.25157 50.66910 31505 ft 438 kts 285°
2026-05-05 21:13 26.25972 50.63651 31805 ft 436 kts 278°
2026-05-05 21:13 26.26519 50.60326 32147 ft 436 kts 276°
2026-05-05 21:13 26.26994 50.56984 32431 ft 438 kts 275°
2026-05-05 21:14 26.27434 50.53618 32690 ft 440 kts 274°
2026-05-05 21:14 26.27859 50.50227 32953 ft 442 kts 274°
2026-05-05 21:14 26.28281 50.46833 33302 ft 442 kts 274°
2026-05-05 21:14 26.28707 50.43439 33628 ft 443 kts 274°
2026-05-05 21:15 26.29136 50.40044 33909 ft 443 kts 274°
2026-05-05 21:15 26.29570 50.36637 34169 ft 443 kts 274°
2026-05-05 21:15 26.30003 50.33247 34499 ft 442 kts 274°
2026-05-05 21:15 26.30446 50.29864 34835 ft 440 kts 274°
2026-05-05 21:16 26.30917 50.26499 35151 ft 439 kts 275°
2026-05-05 21:16 26.31403 50.23137 35453 ft 438 kts 275°
2026-05-05 21:16 26.31886 50.19788 35751 ft 437 kts 274°
2026-05-05 21:16 26.32179 50.16429 35983 ft 434 kts 268°
2026-05-05 21:17 26.32216 50.13073 36241 ft 432 kts 266°
2026-05-05 21:17 26.32188 50.09729 36544 ft 431 kts 265°
2026-05-05 21:17 26.32127 50.06399 36848 ft 429 kts 265°
2026-05-05 21:17 26.32050 50.03078 37148 ft 428 kts 265°
2026-05-05 21:18 26.31968 49.99767 37429 ft 427 kts 265°
2026-05-05 21:18 26.31887 49.96462 37678 ft 426 kts 265°
2026-05-05 21:18 26.31808 49.93160 37848 ft 427 kts 265°
2026-05-05 21:18 26.31731 49.89857 38075 ft 426 kts 265°
2026-05-05 21:19 26.31656 49.86568 38458 ft 422 kts 265°
2026-05-05 21:19 26.31584 49.83311 38772 ft 419 kts 265°
2026-05-05 21:19 26.31511 49.80111 38904 ft 419 kts 265°
2026-05-05 21:19 26.31436 49.76861 39030 ft 420 kts 265°
2026-05-05 21:20 26.31359 49.73569 39163 ft 420 kts 264°
2026-05-05 21:20 26.31282 49.70351 39266 ft 421 kts 264°
2026-05-05 21:20 26.31205 49.67089 39413 ft 421 kts 264°
2026-05-05 21:20 26.31126 49.63827 39556 ft 421 kts 264°
2026-05-05 21:21 26.31048 49.60571 39704 ft 421 kts 264°
2026-05-05 21:21 26.30968 49.57308 39735 ft 421 kts 264°
2026-05-05 21:21 26.30807 49.50788 39747 ft 421 kts 264°
2026-05-05 21:22 26.30643 49.44269 39749 ft 421 kts 264°
2026-05-05 21:22 26.30476 49.37742 39749 ft 421 kts 264°
2026-05-05 21:23 26.30303 49.31212 39746 ft 421 kts 264°
2026-05-05 21:23 26.30128 49.24689 39749 ft 421 kts 264°
2026-05-05 21:24 26.29951 49.18170 39766 ft 421 kts 264°
2026-05-05 21:24 26.29770 49.11647 39758 ft 420 kts 264°
2026-05-05 21:25 26.29492 49.05164 39764 ft 418 kts 262°
2026-05-05 21:25 26.28950 48.98717 39763 ft 418 kts 261°
2026-05-05 21:26 26.28390 48.92278 39761 ft 418 kts 261°
2026-05-05 21:26 26.27869 48.85831 39769 ft 418 kts 261°
2026-05-05 21:27 26.27367 48.79384 39774 ft 418 kts 261°
2026-05-05 21:27 26.26867 48.72937 39776 ft 418 kts 261°
2026-05-05 21:28 26.26362 48.66485 39777 ft 418 kts 261°
2026-05-05 21:28 26.25852 48.60039 39783 ft 418 kts 261°
2026-05-05 21:29 26.25294 48.53597 39784 ft 417 kts 258°
2026-05-05 21:29 26.23781 48.47424 39792 ft 413 kts 246°
2026-05-05 21:30 26.21472 48.41577 39793 ft 413 kts 244°
2026-05-05 21:30 26.19032 48.35793 39799 ft 413 kts 244°
2026-05-05 21:31 26.16585 48.30014 39804 ft 413 kts 244°
2026-05-05 21:31 26.14166 48.24261 39804 ft 413 kts 244°
2026-05-05 21:32 26.11700 48.18490 39800 ft 414 kts 242°
2026-05-05 21:32 26.08626 48.13059 39805 ft 416 kts 237°
2026-05-05 21:33 26.05894 48.08607 39807 ft 416 kts 236°
2026-05-05 21:33 26.02598 48.03323 39817 ft 416 kts 236°
2026-05-05 21:34 25.99327 47.98078 39832 ft 416 kts 236°
2026-05-05 21:34 25.96037 47.92789 39821 ft 416 kts 236°
2026-05-05 21:35 25.92750 47.87504 39827 ft 416 kts 236°
2026-05-05 21:35 25.89459 47.82216 39845 ft 416 kts 236°
2026-05-05 21:36 25.86164 47.76931 39831 ft 416 kts 236°
2026-05-05 21:36 25.82882 47.71672 39844 ft 416 kts 236°
2026-05-05 21:37 25.79581 47.66389 39843 ft 416 kts 236°
2026-05-05 21:37 25.76303 47.61149 39848 ft 416 kts 236°
2026-05-05 21:38 25.72992 47.55860 39847 ft 419 kts 236°
2026-05-05 21:38 25.69642 47.50515 39854 ft 423 kts 236°
2026-05-05 21:39 25.66297 47.45187 39859 ft 422 kts 236°
2026-05-05 21:39 25.62929 47.39828 39860 ft 422 kts 236°
2026-05-05 21:40 25.59567 47.34482 39864 ft 423 kts 236°
2026-05-05 21:40 25.56217 47.29164 39870 ft 423 kts 236°
2026-05-05 21:41 25.52842 47.23811 39870 ft 423 kts 236°
2026-05-05 21:41 25.49460 47.18454 39876 ft 423 kts 236°
2026-05-05 21:42 25.46100 47.13137 39882 ft 423 kts 236°
2026-05-05 21:42 25.42721 47.07795 39880 ft 423 kts 236°
2026-05-05 21:43 25.39341 47.02459 39886 ft 423 kts 236°
2026-05-05 21:43 25.35951 46.97113 39892 ft 423 kts 236°
2026-05-05 21:44 25.32591 46.91820 39881 ft 423 kts 236°
2026-05-05 21:44 25.29209 46.86498 39888 ft 422 kts 236°
2026-05-05 21:45 25.25819 46.81170 39894 ft 422 kts 236°
2026-05-05 21:45 25.22457 46.75892 39898 ft 422 kts 236°
2026-05-05 21:46 25.19055 46.70556 39896 ft 424 kts 235°
2026-05-05 21:46 25.15673 46.65260 39900 ft 424 kts 235°
2026-05-05 21:47 25.12266 46.59929 39906 ft 424 kts 235°
2026-05-05 21:47 25.08854 46.54596 39905 ft 424 kts 235°
2026-05-05 21:48 25.05464 46.49303 39906 ft 424 kts 235°
2026-05-05 21:48 25.02048 46.43976 39905 ft 424 kts 235°
2026-05-05 21:49 24.98636 46.38660 39904 ft 425 kts 235°
2026-05-05 21:49 24.95216 46.33338 39905 ft 425 kts 235°
2026-05-05 21:50 24.91815 46.28052 39903 ft 425 kts 235°
2026-05-05 21:50 24.88379 46.22717 39915 ft 425 kts 235°
2026-05-05 21:51 24.84965 46.17422 39914 ft 425 kts 235°
2026-05-05 21:51 24.81540 46.12117 39909 ft 425 kts 235°
2026-05-05 21:52 24.76414 46.04187 39912 ft 425 kts 235°
2026-05-05 21:53 24.72979 45.98880 39906 ft 425 kts 235°
2026-05-05 21:53 24.69545 45.93580 39895 ft 425 kts 234°
2026-05-05 21:54 24.66097 45.88265 39910 ft 427 kts 234°
2026-05-05 21:54 24.62669 45.82986 39910 ft 427 kts 234°
2026-05-05 21:55 24.59215 45.77673 39911 ft 427 kts 234°
2026-05-05 21:55 24.55763 45.72369 39911 ft 427 kts 234°
2026-05-05 21:56 24.52311 45.67070 39915 ft 426 kts 234°
2026-05-05 21:56 24.48857 45.61775 39911 ft 427 kts 234°
2026-05-05 21:57 24.45399 45.56477 39914 ft 427 kts 234°
2026-05-05 21:57 24.41941 45.51188 39916 ft 427 kts 234°
2026-05-05 21:58 24.38480 45.45898 39921 ft 427 kts 234°
2026-05-05 21:58 24.35020 45.40617 39918 ft 427 kts 234°
2026-05-05 21:59 24.31555 45.35332 39922 ft 427 kts 234°
2026-05-05 21:59 24.28091 45.30055 39926 ft 426 kts 234°
2026-05-05 22:00 24.24627 45.24784 39926 ft 426 kts 234°
2026-05-05 22:00 24.21183 45.19550 39931 ft 426 kts 234°
2026-05-05 22:01 24.17721 45.14282 39922 ft 426 kts 234°
2026-05-05 22:01 24.14767 45.08644 39930 ft 428 kts 242°
2026-05-05 22:02 24.12099 45.02813 39936 ft 429 kts 242°
2026-05-05 22:02 24.09475 44.96951 39941 ft 428 kts 242°
2026-05-05 22:03 24.06850 44.91107 39936 ft 427 kts 242°
2026-05-05 22:03 24.04216 44.85274 39936 ft 427 kts 242°
2026-05-05 22:04 24.01579 44.79452 39938 ft 427 kts 242°
2026-05-05 22:04 23.98937 44.73627 39925 ft 427 kts 242°
2026-05-05 22:05 23.96288 44.67795 39938 ft 429 kts 242°
2026-05-05 22:05 23.93628 44.61943 39935 ft 430 kts 242°
2026-05-05 22:06 23.91296 44.55974 39941 ft 430 kts 246°
2026-05-05 22:06 23.89138 44.49891 39934 ft 429 kts 247°
2026-05-05 22:07 23.87007 44.43798 39926 ft 429 kts 247°
2026-05-05 22:07 23.84865 44.37693 39931 ft 430 kts 247°
2026-05-05 22:08 23.82718 44.31597 39930 ft 430 kts 247°
2026-05-05 22:08 23.80569 44.25513 39927 ft 430 kts 247°
2026-05-05 22:09 23.78416 44.19427 39931 ft 429 kts 247°
2026-05-05 22:09 23.76267 44.13359 39931 ft 428 kts 247°
2026-05-05 22:10 23.74113 44.07288 39925 ft 430 kts 246°
2026-05-05 22:10 23.71949 44.01197 39935 ft 430 kts 246°
2026-05-05 22:11 23.69787 43.95118 39929 ft 430 kts 246°
2026-05-05 22:11 23.67622 43.89042 39942 ft 429 kts 246°
2026-05-05 22:12 23.65458 43.82977 39953 ft 429 kts 246°
2026-05-05 22:12 23.63294 43.76918 39937 ft 429 kts 246°
2026-05-05 22:13 23.61124 43.70855 39945 ft 429 kts 246°
2026-05-05 22:13 23.58951 43.64790 39954 ft 429 kts 246°
2026-05-05 22:14 23.56776 43.58729 39966 ft 428 kts 246°
2026-05-05 22:14 23.54609 43.52694 39961 ft 427 kts 246°
2026-05-05 22:15 23.52439 43.46664 39958 ft 427 kts 246°
2026-05-05 22:15 23.50263 43.40625 39976 ft 429 kts 247°
2026-05-05 22:16 23.48087 43.34592 39982 ft 427 kts 247°
2026-05-05 22:16 23.45916 43.28583 39984 ft 427 kts 247°
2026-05-05 22:17 23.43740 43.22570 39997 ft 427 kts 247°
2026-05-05 22:17 23.41578 43.16602 39993 ft 426 kts 247°
2026-05-05 22:18 23.39404 43.10611 39997 ft 426 kts 246°
2026-05-05 22:18 23.37225 43.04619 39996 ft 426 kts 246°
2026-05-05 22:19 23.35043 42.98631 40000 ft 426 kts 246°
2026-05-05 22:19 23.32860 42.92647 40001 ft 426 kts 246°
2026-05-05 22:20 23.30674 42.86663 40001 ft 426 kts 246°
2026-05-05 22:20 23.28485 42.80676 39984 ft 426 kts 246°
2026-05-05 22:21 23.26288 42.74680 40009 ft 428 kts 246°
2026-05-05 22:21 23.24454 42.69678 40009 ft 429 kts 246°
2026-05-05 22:22 23.22246 42.63663 40009 ft 429 kts 246°
2026-05-05 22:22 23.20035 42.57648 40015 ft 428 kts 246°
2026-05-05 22:23 23.17823 42.51638 40016 ft 428 kts 246°
2026-05-05 22:23 23.15608 42.45631 40008 ft 428 kts 246°
2026-05-05 22:24 23.13385 42.39611 40022 ft 430 kts 246°
2026-05-05 22:24 23.11162 42.33572 40017 ft 430 kts 247°
2026-05-05 22:25 23.09002 42.27510 40020 ft 430 kts 247°
2026-05-05 22:25 23.06852 42.21439 40021 ft 430 kts 247°
2026-05-05 22:26 23.04696 42.15383 40026 ft 429 kts 247°
2026-05-05 22:26 23.02535 42.09345 40024 ft 429 kts 247°
2026-05-05 22:27 23.00366 42.03298 40025 ft 430 kts 247°
2026-05-05 22:27 22.98194 41.97251 40036 ft 430 kts 247°
2026-05-05 22:28 22.96036 41.91249 40027 ft 429 kts 247°
2026-05-05 22:28 22.93864 41.85216 40029 ft 429 kts 247°
2026-05-05 22:29 22.91693 41.79193 40034 ft 429 kts 247°
2026-05-05 22:29 22.89517 41.73165 40033 ft 429 kts 247°
2026-05-05 22:30 22.87337 41.67134 40038 ft 429 kts 246°
2026-05-05 22:30 22.85158 41.61112 40041 ft 429 kts 246°
2026-05-05 22:31 22.82975 41.55089 40054 ft 429 kts 246°
2026-05-05 22:31 22.80796 41.49085 40047 ft 427 kts 246°
2026-05-05 22:32 22.78619 41.43094 40040 ft 427 kts 246°
2026-05-05 22:32 22.76435 41.37095 40045 ft 429 kts 246°
2026-05-05 22:33 22.74244 41.31081 40051 ft 429 kts 246°
2026-05-05 22:33 22.72053 41.25067 40054 ft 429 kts 246°
2026-05-05 22:34 22.69855 41.19067 40035 ft 429 kts 246°
2026-05-05 22:34 22.68755 41.16066 39802 ft 428 kts 246°
2026-05-05 22:34 22.67657 41.13071 39578 ft 428 kts 246°
2026-05-05 22:34 22.66557 41.10078 39348 ft 428 kts 246°
2026-05-05 22:35 22.65454 41.07081 39106 ft 429 kts 246°
2026-05-05 22:35 22.64362 41.04109 38863 ft 429 kts 246°
2026-05-05 22:35 22.63594 41.02019 38713 ft 430 kts 246°
2026-05-05 22:35 22.62599 40.99311 38473 ft 432 kts 246°
2026-05-05 22:36 22.61489 40.96293 38212 ft 432 kts 246°
2026-05-05 22:36 22.60376 40.93271 37946 ft 433 kts 246°
2026-05-05 22:36 22.59259 40.90239 37705 ft 433 kts 246°
2026-05-05 22:36 22.58144 40.87213 37454 ft 433 kts 246°
2026-05-05 22:37 22.57028 40.84190 37213 ft 432 kts 246°
2026-05-05 22:37 22.55914 40.81166 36955 ft 433 kts 246°
2026-05-05 22:37 22.54796 40.78142 36696 ft 433 kts 246°
2026-05-05 22:37 22.53674 40.75111 36449 ft 434 kts 246°
2026-05-05 22:38 22.52569 40.72125 36210 ft 434 kts 247°
2026-05-05 22:38 22.51432 40.69055 35949 ft 434 kts 247°
2026-05-05 22:38 22.50307 40.66018 35701 ft 436 kts 247°
2026-05-05 22:38 22.49176 40.62968 35474 ft 437 kts 247°
2026-05-05 22:39 22.48058 40.59954 35244 ft 438 kts 247°
2026-05-05 22:39 22.46927 40.56909 34849 ft 436 kts 247°
2026-05-05 22:39 22.45797 40.53867 34115 ft 437 kts 248°
2026-05-05 22:39 22.44661 40.50809 33223 ft 439 kts 248°
2026-05-05 22:40 22.43522 40.47747 32566 ft 437 kts 247°
2026-05-05 22:40 22.42398 40.44723 32020 ft 432 kts 247°
2026-05-05 22:40 22.41280 40.41720 31449 ft 428 kts 247°
2026-05-05 22:40 22.40174 40.38752 30900 ft 425 kts 247°
2026-05-05 22:41 22.39070 40.35793 30322 ft 423 kts 247°
2026-05-05 22:41 22.37977 40.32862 29683 ft 420 kts 247°
2026-05-05 22:41 22.36888 40.29947 29121 ft 415 kts 247°
2026-05-05 22:41 22.35813 40.27070 28554 ft 411 kts 247°
2026-05-05 22:42 22.34747 40.24218 28038 ft 407 kts 246°
2026-05-05 22:42 22.33691 40.21395 27492 ft 404 kts 246°
2026-05-05 22:42 22.32641 40.18589 26949 ft 401 kts 246°
2026-05-05 22:42 22.31599 40.15808 26410 ft 399 kts 246°
2026-05-05 22:43 22.30561 40.13040 25871 ft 396 kts 246°
2026-05-05 22:43 22.29529 40.10286 25317 ft 395 kts 246°
2026-05-05 22:43 22.28499 40.07544 24782 ft 393 kts 246°
2026-05-05 22:43 22.27474 40.04813 24244 ft 392 kts 246°
2026-05-05 22:44 22.26357 40.02142 23863 ft 385 kts 239°
2026-05-05 22:44 22.24994 39.99724 23757 ft 370 kts 236°
2026-05-05 22:44 22.23609 39.97442 23635 ft 358 kts 236°
2026-05-05 22:44 22.22255 39.95230 23441 ft 347 kts 235°
2026-05-05 22:45 22.20946 39.93093 23262 ft 336 kts 236°
2026-05-05 22:45 22.19680 39.91024 23111 ft 325 kts 235°
2026-05-05 22:45 22.18451 39.89015 22955 ft 316 kts 235°
2026-05-05 22:45 22.17241 39.87037 22496 ft 317 kts 235°
2026-05-05 22:46 22.16031 39.85054 22042 ft 316 kts 235°
2026-05-05 22:46 22.14820 39.83077 21657 ft 315 kts 235°
2026-05-05 22:46 22.13613 39.81107 21263 ft 314 kts 235°
2026-05-05 22:46 22.12409 39.79142 20868 ft 313 kts 235°
2026-05-05 22:47 22.11210 39.77185 20494 ft 313 kts 235°
2026-05-05 22:47 22.10010 39.75226 20077 ft 313 kts 235°
2026-05-05 22:47 22.08813 39.73273 19680 ft 312 kts 235°
2026-05-05 22:47 22.07615 39.71319 19298 ft 312 kts 235°
2026-05-05 22:48 22.06416 39.69365 18911 ft 312 kts 235°
2026-05-05 22:48 22.05219 39.67413 18526 ft 313 kts 234°
2026-05-05 22:48 22.04018 39.65456 18099 ft 313 kts 234°
2026-05-05 22:48 22.02821 39.63507 17678 ft 311 kts 234°
2026-05-05 22:49 22.01634 39.61573 17287 ft 309 kts 234°
2026-05-05 22:49 22.00452 39.59649 16912 ft 307 kts 234°
2026-05-05 22:49 21.99273 39.57732 16507 ft 306 kts 234°
2026-05-05 22:49 21.98102 39.55828 16135 ft 304 kts 234°
2026-05-05 22:50 21.96955 39.53962 15760 ft 302 kts 234°
2026-05-05 22:50 21.95796 39.52079 15393 ft 301 kts 234°
2026-05-05 22:50 21.94637 39.50171 15046 ft 300 kts 236°
2026-05-05 22:50 21.93656 39.48214 14772 ft 303 kts 241°
2026-05-05 22:51 21.92736 39.46170 14305 ft 304 kts 242°
2026-05-05 22:51 21.91816 39.44107 13825 ft 306 kts 241°
2026-05-05 22:51 21.90867 39.42069 13394 ft 304 kts 240°
2026-05-05 22:51 21.89854 39.40081 13011 ft 301 kts 237°
2026-05-05 22:52 21.88763 39.38178 12597 ft 297 kts 234°
2026-05-05 22:52 21.87580 39.36356 12133 ft 296 kts 231°
2026-05-05 22:52 21.86289 39.34623 11648 ft 297 kts 227°
2026-05-05 22:52 21.84881 39.33003 11216 ft 296 kts 223°
2026-05-05 22:53 21.83369 39.31519 10852 ft 292 kts 219°
2026-05-05 22:53 21.81778 39.30187 10496 ft 288 kts 215°
2026-05-05 22:53 21.80104 39.29008 10109 ft 287 kts 210°
2026-05-05 22:53 21.78352 39.27984 9674 ft 287 kts 206°
2026-05-05 22:54 21.76523 39.27121 9202 ft 288 kts 201°
2026-05-05 22:54 21.74625 39.26432 8787 ft 287 kts 197°
2026-05-05 22:54 21.72694 39.25932 8429 ft 284 kts 192°
2026-05-05 22:54 21.70749 39.25631 8074 ft 283 kts 187°
2026-05-05 22:55 21.68781 39.25529 7681 ft 282 kts 182°
2026-05-05 22:55 21.66814 39.25621 7259 ft 284 kts 176°
2026-05-05 22:55 21.64847 39.25886 6810 ft 286 kts 172°
2026-05-05 22:55 21.62885 39.26299 6379 ft 289 kts 168°
2026-05-05 22:56 21.60933 39.26807 5973 ft 289 kts 166°
2026-05-05 22:56 21.59030 39.27495 5599 ft 288 kts 157°
2026-05-05 22:56 21.57266 39.28531 5143 ft 291 kts 147°
2026-05-05 22:56 21.55618 39.29824 4594 ft 297 kts 141°